Theta_e
317 317 318 318 317 317 317 317 317 317 316 316 315 314 311 311 314 316 315 315 313 315 316 317 316 316 316 318 319 320 321 322 323 323 322 322 322 321 320 319 319 320 322 322 322 324 324 325 325 325 326 328 327 326 327 329 329 329 329 330 332 331 331 331 330 331 332 332 332 331 329 328 328 328 327 325 325 327 329 330 331 330 330 330 331
318 319 318 318 318 316 316 317 317 317 316 316 315 314 309 309 312 314 315 315 314 315 317 317 316 315 314 316 318 318 319 319 319 319 318 319 321 319 318 317 318 318 320 320 320 322 323 323 324 326 326 326 325 325 326 326 327 327 328 328 329 329 330 331 331 331 331 329 330 330 331 331 330 330 329 328 326 327 330 331 331 330 330 329 330
321 321 319 318 318 317 317 317 317 317 317 316 315 312 308 308 311 313 315 316 316 316 317 317 316 315 312 313 315 316 316 315 313 314 314 316 318 318 318 318 318 318 319 320 320 321 322 322 323 324 325 324 325 325 324 324 324 326 327 327 327 327 328 328 329 330 330 329 328 329 332 333 333 331 329 330 328 327 328 330 330 329 329 329 330
321 322 321 318 317 317 317 317 316 316 316 316 315 311 307 308 311 314 316 317 317 317 318 316 315 315 312 312 315 314 313 312 311 313 314 315 316 317 319 318 316 317 318 319 320 321 322 322 323 323 323 323 323 323 323 322 322 323 325 327 327 327 327 327 327 328 328 328 328 329 329 330 334 332 327 328 328 327 327 327 327 327 328 328 329
320 321 322 319 317 317 317 316 316 316 316 316 315 310 306 308 312 315 317 317 317 318 318 315 313 315 313 314 316 313 311 312 312 314 315 316 317 318 317 314 312 314 317 318 319 320 321 322 322 322 322 322 322 322 322 321 321 321 322 323 325 327 328 327 328 328 327 326 327 329 329 330 333 330 327 329 328 326 326 326 325 325 325 326 326
319 320 321 320 317 316 317 317 316 315 316 315 314 310 306 308 312 315 317 317 317 318 317 314 312 313 312 314 316 313 312 313 312 312 313 314 316 317 315 311 312 314 316 318 318 318 319 320 320 320 320 321 321 321 321 321 321 320 320 320 321 323 325 327 328 327 326 327 327 329 329 330 331 329 328 332 330 328 328 326 326 325 325 325 324
319 320 320 319 318 316 316 316 316 315 315 315 315 310 306 308 312 314 316 316 317 318 318 315 312 312 312 312 313 313 312 312 310 311 311 312 314 314 312 312 314 314 314 315 316 317 318 318 318 318 318 319 320 320 320 319 319 319 319 318 319 319 321 323 324 324 325 326 327 327 328 328 329 329 329 331 331 330 329 327 328 327 327 327 325
319 320 320 320 317 316 316 316 316 315 315 315 315 311 307 309 311 314 315 316 317 318 318 316 313 311 312 312 312 313 312 311 310 310 310 311 311 310 310 311 313 313 312 312 313 315 316 315 315 315 316 317 317 318 318 318 318 318 318 318 318 318 318 318 319 320 322 323 324 325 326 327 328 328 328 329 330 331 329 329 329 328 328 328 327
319 320 320 319 318 317 317 317 317 315 315 315 315 312 309 309 311 313 314 315 318 319 317 316 313 312 311 311 312 313 313 312 311 311 310 309 308 308 308 309 311 312 312 310 309 310 311 310 309 309 310 311 312 313 313 315 315 316 316 316 316 315 315 315 316 317 318 318 320 322 323 325 327 327 327 328 329 330 329 329 329 329 329 329 328
317 319 320 318 317 318 317 317 316 316 315 315 315 313 311 310 311 313 313 314 318 319 315 314 313 312 312 311 311 312 314 315 314 313 312 309 307 307 307 308 309 310 311 310 308 307 306 306 306 305 306 306 307 308 308 309 311 312 313 313 312 312 311 312 313 314 315 316 317 318 320 322 324 326 327 327 328 329 329 329 328 328 329 329 328
317 319 320 318 317 317 317 317 316 316 315 315 315 314 312 312 312 313 312 313 318 318 314 313 313 312 312 311 310 312 314 316 315 314 314 311 308 306 307 307 309 310 311 311 309 308 308 307 307 307 306 306 306 307 308 310 311 312 312 311 310 309 309 309 310 311 312 313 314 316 317 318 320 322 323 324 326 328 328 328 328 328 328 328 328
317 318 319 319 319 318 317 316 316 315 316 315 316 315 315 314 314 314 313 313 316 318 315 313 313 312 312 311 311 312 314 315 315 313 312 310 308 307 306 306 308 311 312 313 311 310 311 311 310 309 309 309 308 308 310 311 310 310 309 308 308 307 308 308 308 308 309 310 312 313 314 315 316 317 318 319 322 324 326 327 327 327 328 328 327
316 318 319 321 321 318 316 316 316 315 316 316 316 316 316 316 316 315 315 314 315 317 317 315 314 314 313 312 312 314 315 315 315 313 311 309 308 307 307 307 307 309 311 312 312 311 313 314 313 313 313 311 310 309 310 309 308 308 308 308 307 307 307 307 307 307 307 308 309 310 311 312 313 313 314 316 317 319 322 324 325 325 326 327 327
316 317 319 321 320 318 317 317 316 316 316 316 316 317 317 318 319 317 317 317 317 317 317 317 316 316 315 313 313 315 316 316 316 315 312 311 311 309 307 306 307 307 308 309 311 312 313 314 315 314 314 312 310 310 309 307 306 308 308 308 308 307 307 307 307 307 306 307 307 307 308 309 310 311 312 313 314 316 319 321 322 323 324 325 326
318 319 319 320 318 317 318 318 317 317 317 316 316 317 317 318 319 319 319 319 319 318 318 318 317 316 316 314 314 314 316 316 316 315 314 313 312 312 310 308 307 308 309 310 312 313 313 314 315 314 313 311 310 309 307 306 306 308 308 308 308 308 307 307 306 306 306 306 306 306 306 307 307 308 310 311 312 314 316 318 319 321 323 324 325
317 320 320 319 317 317 318 318 318 318 317 317 317 317 318 319 319 320 320 319 320 320 319 319 318 317 316 315 314 314 315 315 315 314 314 314 314 313 312 311 309 309 310 312 313 314 314 314 314 313 312 311 309 307 306 306 306 307 308 308 307 307 307 306 306 306 306 305 305 305 305 306 306 306 307 309 310 312 314 315 317 320 321 323 324
314 319 321 319 317 316 318 318 319 319 318 318 318 318 319 319 319 320 320 320 321 321 320 320 318 317 317 316 315 315 315 315 315 314 314 314 314 314 313 312 311 310 311 312 313 314 314 313 312 311 311 309 307 306 306 306 306 306 306 306 307 307 306 306 306 306 305 305 305 305 305 305 305 305 306 307 308 310 311 313 315 317 319 321 323
310 314 318 320 318 316 317 318 318 319 319 319 319 319 319 319 320 320 320 321 321 321 321 320 319 318 318 317 317 316 316 315 315 314 314 315 314 314 314 313 312 311 311 313 313 313 313 312 311 309 308 307 306 306 306 307 306 306 306 305 306 306 305 305 305 305 305 304 304 304 305 305 305 305 305 305 306 307 309 310 311 313 315 318 321
309 310 313 317 316 315 317 318 318 319 319 320 320 320 320 320 320 321 321 321 321 321 321 321 320 319 319 319 318 318 316 316 316 315 315 315 315 315 314 313 314 312 311 313 313 313 312 311 309 308 307 307 306 307 307 307 306 306 306 306 305 305 305 305 305 304 304 304 304 304 304 304 304 304 304 305 305 306 307 308 309 310 311 313 317
309 309 309 312 312 313 317 317 318 319 319 320 320 321 321 320 321 321 321 321 321 322 321 321 320 320 319 319 319 319 318 316 317 316 316 316 315 315 314 314 314 314 312 313 313 313 311 309 308 307 307 307 307 307 307 307 306 306 306 306 305 305 305 305 305 304 304 304 304 304 304 304 304 304 304 304 305 305 306 306 307 308 309 311 314
310 309 309 310 308 309 315 317 317 318 318 319 320 321 322 321 321 321 321 321 321 321 321 321 321 320 319 319 320 320 319 317 317 317 316 316 315 315 315 314 315 314 313 313 314 312 309 308 308 307 307 307 308 308 307 307 306 306 306 305 305 305 305 304 305 305 304 304 304 304 304 304 304 304 304 304 304 305 305 305 305 306 307 309 312
309 308 310 310 306 306 312 317 317 318 318 318 319 320 322 322 322 322 322 321 321 321 321 321 320 320 319 320 321 321 319 318 317 317 317 316 316 315 314 315 315 314 314 314 313 310 309 308 308 307 307 308 308 308 307 306 306 305 305 305 305 305 305 305 304 305 305 304 304 303 303 303 304 304 304 304 304 304 304 304 304 304 305 307 309
308 309 310 307 305 306 309 313 315 318 319 318 319 319 321 322 322 322 321 322 322 322 321 321 320 320 320 320 320 321 320 318 317 317 316 315 315 315 315 315 315 314 314 313 311 309 309 309 308 308 308 308 308 307 307 306 305 305 305 304 304 304 304 304 304 304 304 304 304 303 303 303 303 304 304 304 304 304 303 303 304 304 305 306 307
308 310 309 305 305 306 307 308 310 313 316 319 319 319 320 321 322 322 322 322 322 322 321 321 320 320 320 319 319 320 319 318 317 317 316 316 316 316 315 315 314 314 313 311 309 309 309 309 308 308 308 308 307 306 306 305 305 304 304 304 304 304 304 303 304 304 304 304 304 304 303 303 303 303 303 303 303 303 303 303 303 304 305 305 305
310 310 310 308 307 307 306 307 308 309 312 315 319 320 321 321 322 322 322 322 322 321 321 321 320 320 319 319 319 319 318 318 317 317 316 316 316 316 315 314 314 314 312 310 309 310 309 309 309 309 308 307 306 305 305 304 304 303 304 303 303 303 303 303 303 303 303 303 304 303 303 303 303 302 303 303 303 303 303 303 303 303 303 303 304
311 310 310 309 308 306 304 306 307 308 310 311 314 318 320 322 323 323 323 323 322 322 322 321 320 320 319 319 319 318 318 318 317 317 316 316 316 315 314 314 314 313 311 310 310 310 309 309 309 308 307 306 305 304 304 303 303 303 303 302 302 302 301 301 301 301 301 302 302 303 302 302 303 303 303 303 303 303 303 303 303 303 303 303 303
309 309 309 308 309 307 304 305 307 308 310 310 310 312 314 317 320 322 323 324 323 323 322 321 321 320 319 320 320 319 319 318 318 317 317 316 316 315 314 313 313 312 310 310 310 310 310 309 308 307 306 305 304 304 303 303 302 302 302 301 301 300 300 300 299 299 299 299 300 300 301 301 302 302 302 302 302 303 303 303 303 303 303 303 303
309 309 310 309 310 309 305 304 307 308 308 309 309 309 309 311 314 317 320 322 323 324 324 322 321 320 319 319 319 319 319 318 317 317 316 316 315 314 313 313 312 310 310 310 310 310 309 308 307 306 305 304 303 303 302 302 301 300 300 300 299 299 299 299 299 299 298 299 299 299 299 299 299 300 301 301 302 302 302 303 303 303 302 302 302
310 310 310 309 310 310 306 304 307 308 308 308 308 308 308 309 310 313 316 319 321 323 324 323 322 320 319 319 318 318 317 317 316 316 316 315 314 314 313 312 311 310 310 310 310 309 308 307 306 304 304 303 302 302 301 300 300 299 299 299 298 298 299 299 299 299 299 298 298 298 298 298 298 298 299 299 300 300 301 301 301 301 301 301 301
310 310 310 310 310 308 305 305 307 307 308 309 308 309 309 308 308 309 312 315 318 321 322 323 323 321 320 320 319 317 316 315 314 314 314 314 314 313 312 311 311 310 310 310 309 308 307 306 305 303 303 302 302 301 300 299 299 298 298 298 298 298 298 298 298 298 298 298 298 298 298 298 298 298 298 298 298 298 298 299 299 300 300 300 300
310 311 311 311 311 308 305 306 307 307 308 308 308 309 308 308 307 307 309 312 315 318 321 321 322 322 321 321 320 318 315 314 312 312 313 313 313 313 312 311 311 310 310 310 309 307 306 305 304 303 302 302 301 300 299 298 297 296 295 295 296 297 297 297 298 297 297 297 297 297 297 297 297 298 298 298 297 297 297 297 297 298 298 299 299
310 310 310 310 311 310 307 306 306 307 307 307 308 308 308 307 307 307 307 309 311 315 317 320 320 321 321 321 320 317 315 313 313 314 314 314 313 313 312 311 311 311 310 309 308 306 305 304 303 302 302 301 300 299 298 296 295 294 293 293 294 295 295 296 296 296 296 296 296 296 296 296 296 296 297 297 297 297 297 297 297 297 297 297 298
310 309 309 309 308 308 306 306 307 307 307 307 307 307 307 307 307 306 307 308 309 311 314 317 318 319 320 320 318 316 315 314 315 315 315 315 313 312 312 311 311 310 309 308 306 305 304 303 302 301 301 300 298 297 296 294 293 293 293 293 293 293 294 294 295 295 295 295 295 295 295 295 295 296 296 296 296 296 296 296 296 296 296 296 297
308 308 309 306 303 304 306 307 307 307 307 307 307 306 306 306 306 307 307 308 309 310 312 314 316 317 318 318 317 316 315 314 315 314 313 313 312 312 311 311 310 309 308 306 305 304 303 302 301 300 299 298 296 295 294 293 294 294 293 292 293 293 293 294 294 294 294 294 294 294 294 294 295 295 295 295 295 295 295 295 295 295 295 296 296
308 308 308 304 301 303 306 307 307 307 307 306 306 306 306 306 306 307 307 308 309 310 310 312 314 316 316 316 315 315 314 313 313 313 313 312 312 312 311 310 309 308 307 305 304 303 302 301 300 299 297 296 295 294 294 294 294 293 292 292 292 293 293 293 294 294 294 294 294 294 294 294 294 294 294 294 294 294 294 295 294 295 295 295 295
307 306 304 302 302 304 305 306 307 306 306 306 306 306 306 306 306 307 307 308 309 310 311 311 313 314 315 316 315 313 312 312 312 313 313 312 312 311 310 309 308 306 305 304 303 302 301 300 299 297 296 295 295 295 295 294 293 292 291 291 292 292 293 293 293 293 293 293 293 293 293 293 293 293 293 293 293 293 294 294 294 294 294 294 294
303 303 303 303 304 305 305 306 306 306 306 306 305 306 306 306 307 307 308 309 309 310 311 311 312 313 314 315 314 312 311 311 312 312 311 311 311 310 309 308 306 304 303 302 302 301 299 298 298 297 296 295 295 295 294 292 291 291 291 291 291 292 292 293 293 293 293 293 293 293 293 293 293 293 293 293 293 293 293 293 293 293 293 293 293
302 302 303 304 304 305 304 305 305 305 306 305 305 306 306 306 306 307 308 309 310 310 310 311 312 313 313 314 312 310 310 311 312 311 311 310 310 308 307 306 305 303 302 301 300 299 298 298 297 297 296 295 295 294 292 291 291 291 291 291 291 291 292 292 292 292 292 292 292 292 292 292 292 292 293 292 292 292 293 293 293 292 292 293 293
303 303 303 303 303 303 303 304 304 305 305 305 306 306 306 306 307 308 308 309 309 310 310 311 312 312 313 313 311 310 310 310 310 310 309 308 307 306 305 304 303 302 300 299 298 298 298 298 297 296 296 296 294 293 291 291 291 291 291 291 291 291 291 291 291 291 291 291 291 291 291 291 292 292 292 292 292 292 292 292 292 292 292 292 292
303 303 303 303 302 302 303 303 304 304 305 305 306 306 306 307 307 308 308 308 309 309 310 310 311 312 311 311 309 308 308 308 307 307 306 306 305 304 303 301 300 299 298 298 298 298 298 298 297 296 296 295 293 292 291 291 290 291 291 291 291 290 291 291 291 291 291 290 290 290 290 290 290 290 290 291 291 291 291 291 291 291 291 291 292
302 302 302 302 302 302 303 303 304 304 304 305 306 306 306 307 307 307 307 308 308 309 310 310 311 310 309 308 307 306 305 305 305 305 304 303 302 301 300 299 298 298 298 298 298 298 298 298 297 296 296 294 293 292 291 290 290 291 291 291 291 290 290 290 290 290 290 290 290 289 289 289 289 289 289 290 290 290 290 290 290 290 290 291 291
301 301 301 301 301 302 303 303 304 304 305 306 307 307 307 307 306 306 307 308 308 309 310 310 309 308 307 307 306 305 304 303 303 302 301 299 299 298 298 298 298 298 298 299 299 298 298 297 296 296 295 294 293 292 290 290 291 291 291 291 290 290 290 290 290 290 289 289 289 289 289 289 289 289 289 289 289 289 289 289 289 290 290 290 290
301 301 301 301 302 302 303 304 304 305 305 306 307 307 307 306 305 306 307 308 308 309 309 308 306 305 305 304 304 304 303 301 299 298 297 298 298 298 298 298 299 298 298 298 298 298 297 296 296 295 295 294 293 292 290 290 290 291 291 291 290 290 290 289 289 289 289 289 289 289 289 289 289 289 289 289 289 289 289 289 289 289 289 289 290
300 301 301 301 301 302 303 304 305 305 305 306 307 306 305 304 304 305 306 307 307 308 307 306 304 304 304 304 304 302 300 298 297 297 297 297 298 298 298 298 298 298 298 298 298 297 296 296 296 295 294 293 293 292 290 290 290 290 290 290 290 290 289 289 289 289 289 289 289 289 289 289 289 289 289 289 289 289 289 289 289 289 289 289 289
300 301 301 302 302 303 303 304 305 305 305 306 306 304 303 303 303 304 305 306 306 306 305 303 303 303 303 302 301 299 297 297 297 297 297 298 298 298 298 298 297 297 298 298 297 296 296 296 295 294 293 293 293 292 291 290 290 290 290 290 290 289 289 289 288 288 288 288 288 288 288 288 288 288 288 288 288 288 289 289 289 289 289 289 289
300 300 301 302 302 303 303 304 304 304 305 306 305 303 302 302 302 303 304 305 305 304 303 302 302 302 301 300 298 297 297 298 298 298 298 298 297 297 297 297 297 297 297 297 297 296 295 295 294 294 293 293 293 293 292 291 290 290 290 290 289 289 288 288 288 288 288 288 288 288 288 288 288 288 288 288 289 289 289 289 289 289 289 289 289
300 300 301 302 303 303 304 304 304 304 305 305 303 302 302 302 302 302 302 303 302 302 301 301 301 301 300 299 298 297 298 298 297 297 297 297 297 297 297 296 297 297 296 296 296 295 295 294 294 293 293 293 293 292 292 291 290 290 289 289 289 288 288 288 288 288 288 288 288 288 288 288 288 288 288 288 289 289 289 289 289 289 289 289 289
300 301 301 302 303 304 304 304 304 304 305 304 302 302 302 302 301 301 301 301 301 300 300 300 300 299 299 298 298 298 298 298 298 297 297 297 297 296 296 296 296 296 295 295 294 294 294 294 293 293 293 292 292 292 292 291 290 290 289 289 289 288 288 288 288 288 288 288 288 288 288 288 288 288 288 289 289 289 289 289 289 289 290 290 290
300 301 302 303 304 304 304 304 304 305 304 303 302 301 301 301 301 300 300 299 299 299 299 299 299 299 298 298 298 298 298 297 297 297 297 297 297 296 296 295 295 295 294 294 294 294 293 294 293 293 293 292 292 292 292 291 290 290 289 289 288 288 288 288 287 287 287 287 287 288 288 288 288 288 289 289 289 289 289 290 290 290 290 290 290
300 301 302 303 303 304 304 304 304 304 304 302 301 300 300 300 300 300 299 298 298 299 299 299 298 298 298 298 298 298 298 297 297 297 297 297 296 295 295 294 294 294 293 294 294 293 293 293 293 293 292 292 292 292 292 291 290 290 289 289 288 288 287 287 287 287 287 287 287 288 288 288 289 289 289 289 290 290 290 291 291 291 291 291 291
301 301 302 302 303 304 303 304 304 303 302 301 300 299 300 300 300 300 299 299 298 298 298 297 297 297 298 298 298 298 297 297 297 297 297 297 296 295 294 293 294 294 294 294 294 293 293 293 293 293 292 292 292 292 291 290 290 290 289 288 288 287 287 287 287 287 287 287 288 288 288 288 289 289 289 289 290 290 291 291 292 292 292 292 291
Wind_Speed
9 16 21 22 23 25 27 28 28 27 26 25 24 22 20 22 23 23 22 21 21 21 21 20 17 14 13 12 12 11 10 9 9 8 6 5 3 2 2 2 3 3 2 1 2 2 4 4 3 1 2 3 4 3 2 4 8 7 6 6 10 14 14 14 12 11 10 7 6 6 10 12 13 14 15 17 18 21 24 25 25 23 23 23 23
7 12 17 17 18 22 25 28 30 29 28 27 25 24 22 23 24 25 24 23 22 21 21 20 18 15 14 13 13 12 10 7 7 6 5 5 3 2 2 1 2 2 2 1 1 2 3 3 4 4 5 6 5 7 8 4 3 4 2 2 5 6 9 11 11 10 8 5 4 5 6 9 12 14 15 16 18 21 25 27 26 25 25 24 24
8 10 14 17 18 20 24 26 29 29 30 29 26 25 25 25 25 26 26 25 23 20 19 19 18 15 13 12 12 11 9 6 6 5 5 5 5 3 2 1 2 2 1 2 2 3 3 4 4 5 6 7 7 9 10 9 10 12 8 2 3 3 4 6 7 8 7 3 2 3 3 3 6 10 13 16 18 21 25 27 27 27 26 25 24
11 11 12 14 16 19 23 25 26 27 29 30 29 29 29 28 27 28 28 25 23 20 17 17 18 16 13 12 12 10 9 8 7 6 6 5 5 4 2 2 4 4 2 2 4 4 4 5 5 6 6 5 5 7 9 11 12 12 10 6 6 7 5 4 5 5 6 4 1 1 1 1 2 4 6 12 16 20 25 28 28 27 27 25 25
13 14 12 11 16 20 23 24 25 27 30 32 31 32 31 30 29 30 28 26 23 20 17 17 19 18 16 14 12 11 10 10 9 7 6 6 5 4 2 1 3 4 4 3 4 4 5 5 5 5 5 4 3 5 7 8 10 11 11 8 8 8 7 6 8 10 8 5 2 2 1 1 2 3 6 6 9 14 19 24 27 27 26 25 25
11 14 14 14 17 19 20 23 25 28 31 32 33 33 32 31 31 30 29 27 24 21 19 19 20 20 19 17 15 13 13 12 10 8 7 6 5 3 2 2 3 3 4 4 3 3 3 3 2 2 3 3 2 3 4 6 6 8 9 9 10 9 8 7 9 11 9 6 5 3 4 4 4 5 5 3 5 8 10 14 19 22 24 25 26
10 11 13 15 16 17 19 25 29 30 30 31 33 34 34 32 32 31 30 28 25 23 21 21 21 21 19 18 17 16 15 13 10 8 6 5 5 4 3 4 5 4 3 3 3 3 2 2 1 1 0 2 1 1 2 5 6 6 7 8 9 10 10 10 9 9 8 7 8 7 7 8 8 7 4 2 4 6 8 10 11 12 14 17 21
12 12 14 15 16 19 23 29 31 30 29 31 34 35 35 33 32 32 31 29 26 24 23 23 23 23 20 17 16 15 14 12 10 9 8 7 6 5 5 5 4 4 5 4 3 2 2 1 0 0 1 2 2 2 2 3 4 5 5 6 7 9 10 10 9 10 9 9 9 9 9 10 10 9 8 6 3 4 8 12 15 14 13 14 15
14 15 16 15 18 24 29 31 30 29 30 33 35 35 35 34 33 32 30 29 27 25 25 25 25 24 21 18 17 15 13 12 12 11 10 9 7 7 7 6 5 4 4 4 5 5 4 4 4 4 5 5 5 4 4 3 4 4 5 5 7 8 9 8 8 9 9 9 9 9 8 10 10 10 9 8 6 5 5 6 11 16 17 19 18
14 16 16 19 25 29 28 27 27 29 30 32 33 34 35 35 34 33 31 30 28 26 27 27 27 25 22 19 17 17 15 14 14 14 13 11 9 9 7 6 6 5 3 3 4 4 5 5 5 5 5 6 5 6 6 6 6 6 7 7 8 8 8 8 7 8 8 8 8 9 9 10 8 7 7 8 7 7 6 4 7 9 11 19 23
13 14 16 20 21 20 21 23 25 26 27 29 31 33 36 36 36 34 32 31 29 28 28 29 29 26 23 20 19 18 18 17 16 16 15 14 12 10 8 7 6 5 4 3 2 2 2 2 2 3 5 6 7 8 8 8 8 8 9 9 9 9 9 8 8 7 8 8 8 8 9 9 7 6 9 12 9 6 6 5 7 10 10 16 22
14 14 14 12 10 14 19 21 22 24 27 29 32 34 36 37 37 35 33 32 31 30 30 31 29 27 24 21 20 20 20 20 19 19 18 16 14 12 10 8 7 6 5 4 3 2 1 1 2 3 5 7 8 9 9 9 10 10 10 10 10 10 10 9 9 8 9 9 9 8 9 8 8 9 11 13 12 12 10 6 7 12 10 13 19
8 11 11 9 9 12 18 21 23 26 30 33 34 35 35 36 36 37 36 35 34 32 32 32 30 28 25 23 22 21 21 21 21 20 19 17 15 13 12 11 9 8 7 6 4 3 2 3 4 5 5 7 8 9 10 12 11 10 10 10 11 11 11 11 10 10 10 10 9 9 9 9 10 10 11 12 13 15 13 8 10 13 9 12 18
3 5 5 8 10 13 18 23 25 29 33 35 34 33 32 33 36 37 37 37 36 34 33 33 31 29 27 25 24 23 23 22 22 22 21 19 16 15 13 12 11 10 8 6 5 4 4 5 6 5 6 7 8 10 11 11 11 10 10 11 11 11 11 11 11 11 11 11 11 10 11 11 11 11 11 12 13 14 14 11 11 12 11 13 14
4 4 5 6 10 16 21 24 27 30 33 34 33 33 32 33 35 37 37 37 36 36 35 34 33 31 29 27 26 25 24 23 23 23 22 20 18 16 15 13 12 11 9 7 6 6 7 7 7 7 7 7 9 10 10 10 10 10 10 10 10 10 10 10 11 11 11 12 12 12 12 11 12 12 11 11 11 11 13 14 13 10 8 8 8
2 4 6 4 6 11 17 23 28 31 32 31 32 32 33 34 35 37 37 37 38 38 37 36 35 33 31 29 28 26 25 24 24 24 23 22 20 18 16 15 14 12 9 9 9 9 8 8 8 7 7 8 10 10 9 10 11 11 11 10 9 8 9 9 10 10 10 11 12 13 13 12 12 12 12 11 11 11 11 13 13 11 8 6 5
6 2 4 4 4 8 12 14 17 20 25 30 34 37 37 35 34 35 35 36 37 38 38 37 36 35 34 32 29 28 27 26 26 26 25 24 22 19 18 17 15 13 11 11 11 10 10 9 8 8 9 10 10 9 9 10 12 12 12 12 10 9 9 9 10 10 11 12 12 13 12 12 12 12 12 11 11 11 11 11 12 12 11 8 6
8 6 4 1 5 9 10 11 11 12 16 22 28 32 33 33 34 35 36 36 38 39 38 38 38 37 35 33 31 29 28 28 28 27 26 25 24 21 20 19 17 14 14 13 12 11 11 10 9 10 11 11 11 9 10 11 12 12 12 12 12 11 11 11 11 12 12 13 13 12 12 12 13 13 13 12 12 12 12 12 12 12 12 11 9
8 8 7 5 0 7 11 11 10 12 15 18 20 21 23 27 30 33 36 37 38 38 38 38 38 38 37 35 33 30 29 29 29 29 27 26 26 24 22 21 18 17 16 15 14 13 12 11 11 10 11 11 10 10 11 12 13 13 13 12 13 13 13 13 12 13 13 14 14 13 13 13 13 13 13 12 12 12 12 13 13 13 13 13 13
7 8 8 8 8 5 9 15 14 14 16 18 19 20 22 24 25 28 31 32 33 35 36 37 38 38 38 36 34 31 30 31 31 30 29 28 27 25 23 22 21 19 19 18 17 15 14 12 10 10 10 9 9 10 11 13 13 13 13 13 14 14 14 14 15 15 14 14 15 15 15 15 15 14 14 12 12 12 12 13 13 14 13 12 14
7 8 8 8 11 14 6 11 15 15 16 18 19 21 23 23 25 27 28 28 31 34 35 37 38 38 38 37 36 33 32 32 32 31 30 29 27 26 25 24 23 22 21 20 18 16 14 11 9 9 9 8 9 11 12 13 13 13 13 14 14 14 15 16 16 16 16 15 16 17 18 17 17 16 15 13 13 13 13 14 14 14 14 12 13
6 6 8 8 10 16 14 3 7 11 15 17 19 21 23 26 30 30 29 30 32 34 36 37 37 38 38 38 37 35 34 34 33 32 31 29 28 27 25 25 24 23 22 21 19 16 12 10 9 8 7 8 10 11 11 12 12 12 12 12 13 14 15 16 17 17 17 17 18 19 20 19 18 17 16 15 15 14 14 16 16 15 15 14 12
6 6 7 8 10 15 17 13 6 4 10 14 18 21 24 27 29 28 29 31 33 34 36 37 36 37 39 38 38 37 36 36 35 34 33 31 29 27 26 25 25 24 23 20 17 14 11 9 8 8 7 9 10 10 10 10 10 11 11 11 12 13 15 16 17 18 18 19 19 20 20 20 19 18 18 18 17 16 16 16 17 15 15 14 12
6 6 6 8 12 15 16 16 14 10 5 8 14 18 21 24 25 26 28 32 34 34 34 35 36 37 38 38 38 38 38 37 37 36 34 32 30 27 26 26 25 24 22 19 15 13 11 9 9 8 8 9 9 8 9 10 10 11 11 12 13 14 15 16 17 17 18 19 19 19 20 20 20 19 21 21 19 18 18 17 16 16 15 15 14
6 7 7 8 10 11 12 15 17 17 14 7 8 13 18 21 23 26 29 33 33 31 31 33 35 36 37 37 37 38 38 38 38 36 34 33 30 28 26 26 25 23 20 17 15 13 11 10 9 9 9 8 7 8 9 10 11 12 13 14 15 16 17 18 19 19 18 18 19 20 21 21 21 21 21 21 20 19 19 18 17 17 16 17 17
7 7 7 6 6 7 11 15 18 19 19 15 10 8 13 18 21 24 27 30 31 29 30 32 34 35 36 36 37 37 38 38 37 36 34 32 30 27 26 26 25 22 18 16 15 13 11 10 9 9 8 7 7 8 9 10 11 12 13 14 15 17 18 19 20 21 20 19 19 19 20 20 20 21 21 21 21 21 20 19 18 18 17 16 17
6 6 6 6 6 6 8 13 17 19 20 20 18 15 11 11 15 19 21 24 26 27 28 29 32 34 36 38 39 39 39 39 38 36 34 32 29 27 26 25 23 19 17 16 14 12 11 10 9 8 6 7 7 7 8 9 10 11 13 14 16 17 18 19 20 21 21 21 21 21 20 20 20 20 21 21 21 21 20 20 19 18 17 16 17
6 7 6 6 6 6 7 11 15 18 20 21 21 21 20 17 15 14 17 21 24 25 26 26 27 28 30 33 36 38 38 37 36 35 33 31 29 27 25 24 20 18 16 15 13 12 11 9 7 6 5 6 6 6 7 8 10 11 13 14 16 17 19 20 20 21 21 21 22 23 23 23 23 22 22 22 22 21 21 22 21 20 20 21 20
6 6 5 5 5 5 7 10 13 14 16 18 19 21 21 22 21 18 15 16 20 23 25 25 25 24 23 24 25 27 30 32 34 35 34 32 29 26 24 22 19 17 15 14 13 12 10 8 6 5 4 4 5 6 7 8 10 12 14 15 17 18 20 21 22 22 22 22 22 23 24 24 24 24 23 23 23 23 24 25 25 24 24 24 24
5 5 4 3 2 2 4 7 10 12 12 14 15 17 19 21 23 22 19 16 15 19 22 23 24 24 24 23 22 22 25 27 29 30 30 29 27 24 23 21 18 16 15 14 13 12 9 7 5 4 4 5 5 6 7 9 11 14 16 18 19 20 21 21 23 23 24 24 23 24 24 24 24 24 24 24 25 25 26 27 27 28 27 26 26
6 6 5 4 3 3 3 5 8 10 11 12 14 15 16 18 20 22 22 20 16 16 19 22 24 26 27 27 25 24 23 23 22 22 23 23 23 22 21 20 18 16 15 15 13 11 9 7 5 5 5 5 5 6 9 12 14 16 17 19 20 22 22 22 23 23 24 24 24 24 24 24 25 25 25 26 26 27 27 27 28 28 28 28 27
6 6 6 7 6 5 6 8 10 12 13 14 15 16 16 17 19 20 21 22 19 17 18 21 24 26 28 29 28 26 23 23 24 24 25 24 23 23 22 20 18 17 16 14 13 11 9 7 6 6 6 5 6 9 12 14 15 17 18 19 20 22 23 24 25 25 26 26 26 26 26 26 26 26 27 27 27 28 28 28 29 29 29 29 29
6 7 7 7 8 9 10 13 16 18 19 19 18 18 20 22 22 22 21 22 23 21 21 23 23 25 28 29 29 28 27 28 29 29 29 27 26 25 23 21 18 17 15 14 13 11 9 7 7 6 4 5 8 11 13 15 16 18 20 21 22 22 24 26 27 28 28 27 27 28 28 28 27 26 26 27 27 28 29 29 30 30 30 30 30
6 7 7 7 9 13 15 17 20 22 23 24 23 23 25 27 27 25 23 22 24 25 24 25 25 26 28 29 30 30 30 31 31 30 29 28 27 25 23 20 18 17 15 14 13 11 9 7 6 4 4 7 10 12 14 15 16 19 22 23 24 25 26 27 28 28 28 28 28 28 29 29 28 27 27 26 27 28 28 29 30 30 30 30 30
7 7 7 9 12 15 17 19 22 24 25 27 28 28 30 31 29 26 25 24 24 25 26 27 27 27 28 29 30 31 31 32 32 31 29 28 28 27 24 21 18 17 16 15 13 10 8 6 5 4 5 8 10 13 14 15 17 20 23 25 26 28 29 29 29 29 29 29 29 29 30 30 29 29 28 27 27 27 28 29 30 30 30 30 31
7 7 8 12 15 17 18 20 23 25 26 27 30 31 31 32 31 28 26 25 24 24 26 27 28 29 29 31 31 31 32 34 34 33 33 32 30 27 24 21 18 17 16 14 12 9 7 5 4 4 6 8 10 12 13 15 18 22 25 26 28 29 30 29 29 29 29 30 29 29 30 31 31 30 29 27 27 27 28 30 30 31 31 31 33
10 12 13 15 18 19 20 22 24 26 27 29 32 33 31 32 31 28 26 25 24 25 25 26 28 29 30 32 32 31 32 35 36 35 34 32 29 25 22 20 19 18 15 13 10 7 5 4 5 5 5 8 10 12 14 17 21 24 26 27 29 29 29 29 29 29 29 29 29 29 29 30 31 30 29 28 27 27 29 30 30 30 30 31 33
12 14 15 16 18 19 21 24 25 26 28 30 32 32 30 30 30 28 26 25 25 25 25 25 27 29 31 32 31 31 33 36 37 36 34 30 26 24 22 19 18 16 13 10 7 5 4 5 5 5 6 9 11 12 15 20 24 26 27 28 29 29 29 29 29 29 29 28 28 28 27 28 30 30 29 28 27 27 29 30 29 30 31 32 32
14 14 15 16 19 21 23 24 24 26 28 29 30 29 27 27 28 27 26 26 26 26 26 25 26 29 31 31 30 32 36 38 37 35 32 28 24 21 19 16 13 11 9 7 5 4 5 6 5 5 7 10 12 14 18 23 26 28 28 28 28 28 29 29 29 29 28 28 27 28 27 28 29 30 30 30 30 30 32 32 30 30 32 33 32
16 16 16 18 20 21 23 23 24 26 28 28 27 25 23 23 25 25 26 27 28 29 27 25 26 27 27 27 27 29 31 31 30 28 25 23 21 18 16 14 11 8 6 5 5 5 6 6 6 7 9 10 12 16 21 26 28 29 28 28 28 28 29 29 29 28 28 29 29 31 31 31 31 32 32 33 33 33 34 34 33 33 34 33 31
17 17 18 19 21 21 21 23 25 26 27 26 24 23 22 22 23 24 26 29 32 31 27 23 23 24 24 24 25 25 23 22 23 23 22 20 19 17 15 13 10 7 5 4 6 7 7 7 8 9 11 12 14 19 24 28 30 30 29 28 28 28 28 29 29 29 30 31 32 32 33 32 31 32 32 33 34 34 35 36 37 37 37 35 33
16 17 18 20 21 21 20 22 24 25 24 23 22 22 22 21 22 25 28 31 32 27 20 18 21 22 24 27 27 26 24 22 22 23 23 20 17 15 12 10 8 5 4 5 7 9 9 9 9 11 13 14 16 20 25 28 30 30 29 28 28 28 27 28 30 30 30 32 32 32 33 33 32 33 33 34 35 36 36 37 38 38 37 36 35
17 18 20 20 20 20 20 22 24 23 22 22 21 21 20 21 24 28 30 29 25 19 18 22 25 28 31 32 30 28 28 27 24 23 21 18 15 12 9 7 6 5 5 7 9 10 9 9 10 13 15 17 17 20 25 28 30 32 31 30 28 27 27 28 30 32 33 35 35 35 36 35 35 35 36 36 37 37 37 38 39 39 38 38 37
18 20 23 21 19 20 21 23 23 22 21 21 19 18 19 22 26 28 26 22 19 22 27 30 32 34 34 32 30 30 28 26 24 23 21 18 15 11 9 8 6 6 7 8 9 9 8 9 12 15 17 18 19 22 25 29 31 32 32 31 29 28 28 28 31 33 35 36 36 36 36 37 37 38 39 39 39 40 40 40 41 41 40 39 38
19 22 24 22 20 21 21 22 23 22 21 19 15 15 16 18 19 19 17 20 26 31 33 34 34 34 33 31 30 29 27 25 25 24 21 17 14 11 9 8 6 6 7 8 8 8 9 11 14 17 19 20 21 23 27 30 32 32 32 31 29 29 29 29 31 33 34 35 37 38 39 40 40 40 40 40 40 40 41 42 43 42 41 40 38
19 21 22 22 21 20 19 19 20 21 20 15 10 9 9 7 6 7 15 24 31 35 35 35 36 35 33 31 30 29 27 25 23 21 18 15 13 10 8 7 6 6 7 8 7 8 10 13 15 18 20 21 23 25 28 31 31 31 31 31 30 30 30 30 31 33 34 35 36 37 37 38 38 38 39 39 39 39 39 40 40 40 39 39 37
18 20 22 21 19 17 16 15 17 20 18 10 5 3 1 2 4 9 18 25 31 34 35 35 35 33 29 28 28 28 26 22 20 19 16 13 11 8 6 5 4 5 6 6 7 9 12 14 17 18 20 22 23 26 29 31 30 31 32 32 31 30 30 30 31 31 32 33 34 35 36 37 38 39 39 39 40 39 39 39 39 38 38 38 37
20 21 20 19 17 15 14 13 15 17 13 2 6 6 6 8 12 17 25 30 32 33 31 29 28 28 26 26 25 23 22 20 18 17 14 12 10 7 5 3 1 2 3 4 6 10 13 15 17 19 20 22 24 26 30 31 31 32 34 33 31 31 31 31 31 32 33 34 34 34 35 35 36 36 35 35 35 35 35 36 36 37 36 37 37
19 20 19 17 16 15 12 12 14 11 2 9 12 11 13 16 19 24 29 32 32 30 28 26 26 26 26 26 23 20 19 19 18 16 13 11 9 7 5 3 2 1 1 3 7 10 12 14 16 19 20 21 23 27 30 31 32 34 34 32 31 31 32 32 32 33 33 32 31 30 30 30 29 29 28 28 28 28 30 31 33 34 34 34 35
19 19 18 18 17 14 12 12 12 3 13 17 14 14 17 20 22 25 27 28 29 29 28 26 26 26 27 26 23 22 21 19 17 15 12 10 9 7 6 5 3 2 1 3 6 8 10 13 16 18 20 21 25 29 31 32 34 34 32 30 30 31 32 32 31 30 29 28 27 26 25 24 24 24 23 23 24 24 25 26 28 30 31 32 33
18 18 18 18 16 12 11 11 5 12 21 19 17 19 18 16 19 21 20 21 24 27 25 24 25 27 28 25 23 22 21 19 16 14 12 11 9 7 7 7 5 3 1 3 5 6 8 11 14 17 20 21 24 28 30 31 33 32 30 29 30 31 31 30 28 27 26 25 23 23 22 22 22 22 21 22 23 23 23 24 25 26 27 29 30
Wind_Direction
189 191 194 192 187 181 177 175 174 174 175 175 172 172 173 174 176 172 167 164 158 155 154 153 152 154 152 148 140 135 141 149 155 160 159 160 168 198 227 230 215 207 184 148 108 90 81 83 75 304 304 330 286 296 357 239 243 239 239 268 258 249 254 251 252 280 295 298 296 263 241 238 238 239 238 238 241 242 239 237 237 241 244 246 247
169 195 201 196 189 183 179 176 175 176 175 177 176 173 173 175 177 174 169 167 162 160 161 159 160 162 160 156 148 142 146 157 161 161 164 168 177 216 238 219 204 200 179 143 134 114 99 97 81 64 63 62 55 51 54 55 32 41 41 276 260 256 256 249 248 266 279 286 313 313 278 253 245 243 243 242 241 240 238 238 240 241 243 246 248
179 198 204 199 190 184 182 180 181 180 177 178 178 174 172 173 175 173 171 169 167 169 171 168 168 168 165 161 156 149 149 163 167 153 149 157 163 176 192 214 222 212 148 94 102 108 101 98 97 89 75 65 58 57 58 54 53 57 60 32 320 328 284 264 260 258 260 270 307 303 298 286 260 250 247 246 244 241 237 238 243 245 246 247 247
187 199 205 196 187 186 188 186 185 182 178 179 178 174 173 173 174 173 173 174 172 176 181 178 174 172 170 166 160 156 155 166 171 156 150 154 158 171 197 249 249 232 194 121 110 107 108 109 109 107 89 70 52 51 53 48 49 56 59 45 11 6 350 339 337 310 294 297 293 252 308 2 273 280 273 255 249 244 238 237 242 246 250 250 249
189 194 199 195 192 191 190 189 188 185 183 182 180 176 175 176 176 175 176 177 178 181 186 183 176 173 170 167 164 159 159 171 180 178 173 170 173 185 205 280 262 216 184 150 135 120 118 122 116 107 94 78 47 40 48 47 43 46 50 42 26 16 2 358 3 3 352 326 293 250 296 281 243 339 342 282 258 252 244 240 241 245 249 252 253
196 195 195 199 198 189 187 190 191 190 188 184 182 179 178 179 179 179 180 181 182 185 188 185 179 175 171 169 170 167 169 177 184 185 181 178 180 186 169 102 92 144 166 162 159 149 142 143 131 100 83 73 44 22 35 41 37 38 41 38 34 31 25 22 11 9 13 7 353 312 286 277 280 328 344 314 295 281 259 247 246 249 254 255 256
199 202 201 205 197 181 185 195 196 195 191 185 183 183 182 182 182 183 184 183 183 187 192 190 183 181 181 181 183 183 184 184 185 186 185 185 185 185 171 132 104 100 128 154 178 192 201 212 228 252 37 76 67 358 15 33 36 36 34 32 32 31 35 41 28 15 18 14 6 353 328 312 294 287 270 277 317 300 285 281 270 264 266 265 262
190 199 205 208 197 186 191 197 198 196 190 186 186 186 186 184 184 186 187 186 187 190 196 195 189 188 189 191 193 196 197 189 185 190 192 196 196 191 180 155 131 112 102 101 125 158 187 203 174 89 84 83 78 68 32 18 21 25 23 21 20 22 29 38 36 31 27 10 357 355 345 331 314 295 276 268 275 284 292 292 286 285 287 284 279
188 194 203 206 198 196 198 197 196 194 191 190 188 188 188 187 188 190 192 191 190 194 198 197 195 194 193 196 199 202 203 195 190 198 201 201 201 197 187 167 155 144 120 103 104 112 114 99 81 74 72 71 71 70 60 38 22 18 16 12 10 16 21 24 27 29 30 20 7 360 350 339 330 319 306 287 271 278 288 289 293 300 297 288 285
193 196 200 206 203 200 198 194 193 193 193 191 189 190 190 190 192 195 196 196 194 196 198 197 197 197 197 200 203 203 201 198 198 203 206 208 207 202 196 181 169 163 151 134 123 117 110 96 81 70 56 49 49 47 43 34 26 19 13 7 3 6 6 4 10 12 15 19 15 11 7 360 343 327 324 312 288 273 274 279 294 302 299 290 290
193 201 205 206 201 194 190 190 191 192 192 192 191 192 193 194 195 197 199 199 198 198 199 199 199 200 202 204 206 205 202 202 203 203 206 210 211 207 205 201 192 181 177 174 167 149 128 105 73 49 28 17 13 15 16 13 8 0 355 352 349 353 354 351 350 348 352 0 6 11 12 6 352 333 330 325 314 290 282 288 289 286 281 283 290
190 196 204 196 173 171 182 188 189 189 192 195 194 195 195 196 197 198 200 201 201 201 201 202 202 203 206 206 206 205 205 208 208 208 210 212 212 212 213 215 214 208 203 204 209 216 216 287 327 344 354 359 358 359 359 355 352 349 348 350 351 353 352 352 351 347 347 349 352 356 356 353 346 337 335 330 325 315 306 295 293 297 284 276 287
211 203 194 177 166 175 180 182 186 190 196 198 198 197 197 197 197 199 202 203 204 203 204 207 207 206 206 206 205 205 208 213 214 215 217 218 216 215 218 223 224 224 224 221 220 236 254 278 300 313 327 339 345 346 344 343 348 355 358 359 360 360 358 358 359 356 354 350 343 336 332 335 336 335 335 332 328 326 322 314 307 306 292 283 292
221 248 212 183 182 183 181 185 189 194 199 200 199 199 198 198 199 200 203 205 205 205 206 209 211 210 208 207 206 205 209 214 219 222 223 223 223 222 225 230 231 233 238 235 231 241 255 267 278 288 304 321 332 334 333 339 348 353 354 355 357 358 359 359 357 355 353 350 344 334 325 323 325 328 330 329 330 329 325 322 319 313 296 286 289
159 202 226 217 201 189 186 189 193 198 201 201 200 199 199 199 200 202 203 205 206 206 207 210 213 213 211 210 208 208 211 215 220 225 226 227 228 228 230 233 236 239 240 241 240 247 257 260 261 268 287 306 319 322 326 339 344 343 341 342 344 345 348 351 352 351 350 348 347 342 333 326 321 321 321 322 326 327 322 319 319 315 302 291 286
59 165 193 230 240 215 200 195 198 201 201 201 201 201 202 201 201 202 204 205 206 207 208 211 214 215 214 212 210 211 214 216 219 223 228 229 230 231 232 234 239 239 236 236 240 246 252 252 255 268 286 303 311 315 326 338 338 336 334 332 335 335 336 341 343 343 344 343 342 339 335 332 328 323 316 313 314 317 320 320 316 312 308 300 295
28 67 171 190 225 238 232 221 215 210 205 203 203 204 205 203 202 203 204 205 207 208 209 211 213 215 215 214 212 213 215 217 219 222 226 229 230 232 233 233 235 237 235 234 237 241 244 250 263 278 292 304 310 317 329 334 333 333 332 330 332 329 327 331 333 333 335 335 335 333 330 330 330 327 319 312 308 307 309 313 313 311 310 305 298
30 35 50 159 197 212 228 241 245 235 224 218 214 212 209 206 204 203 204 206 208 209 210 212 213 214 216 215 215 216 218 219 221 224 227 228 228 230 230 230 231 233 234 233 234 237 242 252 269 283 295 303 310 317 325 326 327 329 330 328 327 324 323 324 325 326 329 330 331 329 325 324 326 326 321 314 309 305 303 304 306 308 309 305 300
18 25 30 25 313 213 213 223 238 235 231 230 229 228 222 215 211 208 207 209 210 210 211 212 214 215 217 217 217 218 221 222 223 225 226 226 228 228 227 227 228 229 231 231 233 236 243 255 269 283 295 301 306 313 317 319 322 324 324 324 322 318 316 317 320 323 326 328 328 327 325 324 324 323 320 318 317 313 310 307 306 306 309 308 304
12 14 16 19 15 335 224 212 221 228 229 229 228 228 227 224 221 217 214 213 212 212 212 213 215 216 218 218 218 220 223 225 226 226 226 226 226 226 225 224 224 225 226 228 231 237 244 254 268 282 291 296 302 307 309 312 316 318 318 317 316 314 312 314 319 322 324 325 326 326 325 323 323 323 321 322 323 321 319 315 312 310 310 311 309
17 14 12 12 13 6 334 222 215 217 221 227 227 224 223 224 225 224 221 217 216 215 215 216 217 217 218 218 218 220 223 226 226 226 226 225 224 224 224 222 221 221 222 222 226 233 239 248 264 278 286 292 296 299 302 306 310 312 314 315 314 313 313 315 319 320 322 322 323 323 322 321 321 319 319 321 320 318 318 315 314 314 310 310 311
34 29 23 18 16 17 15 332 229 218 216 220 221 221 222 223 225 224 222 220 219 218 217 218 218 217 219 219 219 221 223 225 226 225 224 223 223 222 221 219 217 218 218 218 222 225 228 238 255 266 274 283 288 291 294 299 302 306 311 314 316 316 315 317 317 317 318 318 318 318 318 319 318 315 314 316 315 312 314 314 313 314 310 307 308
50 49 41 30 28 28 29 25 3 261 232 224 219 218 220 224 226 224 222 222 223 222 221 219 218 219 220 220 220 221 223 224 224 223 222 221 221 220 218 216 214 213 213 214 216 215 216 228 240 247 258 270 277 280 284 289 294 300 307 309 313 314 315 317 317 316 315 313 312 313 314 315 314 311 310 310 310 308 308 309 308 310 309 304 306
50 50 44 36 32 30 25 18 11 1 314 248 231 224 222 225 228 227 226 227 227 225 223 220 219 221 222 221 220 220 222 223 223 222 221 220 219 218 216 214 211 209 209 209 208 208 212 221 227 234 246 256 262 268 277 286 292 299 304 306 308 309 309 311 312 313 314 310 307 307 310 311 308 305 305 305 305 304 305 305 303 303 304 302 304
47 42 38 36 30 23 15 5 1 2 360 333 266 245 235 231 230 228 229 231 231 229 225 222 220 220 221 221 220 220 221 222 223 222 221 219 217 215 214 211 208 206 206 205 203 204 210 217 223 232 239 244 255 268 278 288 295 300 303 304 305 305 305 305 305 306 307 306 303 303 304 304 302 300 300 300 300 301 301 300 296 296 295 295 298
38 40 44 46 37 23 15 6 358 356 357 355 339 291 257 245 239 234 233 234 234 233 230 226 222 220 220 221 221 221 221 223 223 222 221 218 215 213 211 207 205 205 204 203 202 204 210 216 222 228 237 249 264 277 286 292 297 299 301 301 301 302 302 303 303 303 302 300 300 300 299 298 297 296 295 295 296 297 296 295 294 293 292 292 292
29 37 43 45 39 26 19 13 6 1 359 359 359 355 335 293 266 253 247 244 242 241 238 232 227 223 222 222 222 222 223 223 222 221 219 216 213 211 207 203 202 204 203 202 203 206 210 214 219 227 246 266 276 284 290 293 297 299 301 302 303 303 303 302 302 301 299 297 296 296 295 293 292 291 291 292 292 292 291 290 290 290 290 290 290
27 34 33 33 26 12 12 13 9 6 3 1 358 354 353 347 327 298 273 259 251 245 242 240 236 233 230 228 227 225 223 220 219 217 215 213 209 206 203 201 200 201 203 205 207 208 208 209 218 237 259 269 276 282 287 294 302 306 308 308 307 306 304 302 300 298 297 296 295 295 294 292 291 288 286 286 286 287 288 286 285 285 287 288 288
26 24 19 27 22 2 357 359 1 4 1 358 354 349 346 344 341 334 311 280 259 247 242 241 241 242 243 245 243 235 226 219 216 212 207 205 203 200 198 199 199 200 203 207 209 209 207 210 223 243 252 255 262 275 292 306 313 316 316 313 310 306 303 300 298 296 296 294 294 294 293 293 292 289 285 284 282 282 283 283 282 283 284 285 285
10 356 350 4 359 334 336 341 347 351 350 348 347 345 342 337 334 332 326 311 279 254 245 241 240 241 243 246 248 243 233 223 212 203 197 196 195 196 197 197 197 200 203 205 207 208 211 219 228 234 235 242 257 280 305 317 322 321 318 313 309 305 301 298 297 296 295 293 293 292 292 291 290 287 285 284 283 283 282 281 280 280 279 280 280
349 342 338 331 316 303 306 319 329 331 333 335 333 332 331 330 329 324 319 316 299 269 252 244 238 237 237 237 236 234 228 217 203 192 191 194 194 196 199 198 197 199 201 204 208 211 216 221 224 227 234 246 271 300 315 321 323 323 321 317 311 306 302 298 297 296 295 295 294 292 291 290 287 286 284 283 283 284 283 282 280 278 276 275 274
342 339 336 333 326 322 317 317 322 322 323 325 325 322 317 314 316 315 312 310 301 279 261 251 241 235 234 232 229 223 212 205 199 194 195 199 199 198 198 198 197 197 200 205 210 214 216 219 225 231 240 262 295 313 320 323 326 329 331 327 318 310 305 301 298 297 296 296 294 292 290 287 285 284 283 282 281 281 281 281 280 278 276 273 271
329 327 325 325 317 313 313 316 320 321 322 323 321 317 313 310 308 307 305 302 297 285 267 255 244 235 232 229 224 217 205 201 201 196 193 194 195 195 196 196 194 195 200 206 210 214 216 221 227 231 250 294 316 320 321 325 327 331 333 329 321 315 308 303 300 297 295 294 292 290 288 285 283 281 279 279 278 279 280 280 279 278 276 274 271
314 312 312 311 307 307 308 311 316 317 318 321 319 316 314 311 307 303 298 295 294 289 275 260 246 237 232 225 219 212 204 199 197 191 186 186 188 192 195 194 191 193 199 205 208 212 216 220 227 241 288 319 325 322 322 325 325 325 327 324 319 313 307 303 300 297 294 292 289 288 285 283 282 280 278 277 277 278 279 278 277 277 275 274 273
308 307 304 304 304 303 303 307 312 315 316 316 316 315 312 309 304 299 294 290 289 286 278 266 252 239 230 222 214 207 198 193 188 183 181 184 189 192 191 188 189 194 200 205 207 209 212 217 234 272 308 324 329 326 323 322 319 321 323 321 316 311 305 301 298 295 293 291 289 287 285 283 282 280 278 277 276 276 276 276 275 275 274 274 272
284 285 287 296 300 299 300 303 307 310 310 310 310 310 308 304 301 297 293 290 287 281 275 265 253 241 231 223 214 203 194 187 182 179 180 184 188 189 186 184 186 191 195 198 199 203 210 226 254 285 310 323 327 325 320 317 319 323 324 321 315 309 303 298 295 293 291 290 289 286 284 283 281 279 278 277 276 275 275 274 274 274 275 275 272
278 282 287 296 302 303 303 304 303 303 303 303 304 305 302 299 297 295 292 290 284 277 270 262 251 241 232 223 214 201 189 182 178 177 179 182 184 184 182 182 184 185 187 189 192 199 220 253 269 286 309 319 320 319 318 320 325 328 325 320 314 308 302 297 294 292 291 289 288 286 284 282 280 279 279 278 277 276 273 271 272 274 275 274 273
283 290 294 300 304 305 304 301 298 295 297 299 300 300 297 293 292 292 291 287 280 275 271 261 248 238 230 221 210 194 184 179 177 177 178 177 178 177 176 178 182 182 181 183 189 205 241 262 269 283 305 312 312 316 324 328 330 330 326 320 314 308 302 298 295 293 291 290 288 287 284 281 279 278 278 278 277 275 272 270 271 274 275 272 272
291 292 293 299 303 304 302 298 292 289 294 298 297 294 291 287 288 290 287 281 277 276 273 263 248 236 225 214 200 188 183 180 175 172 169 165 164 165 165 168 173 173 171 179 196 228 250 255 261 281 297 305 311 320 330 333 333 332 328 321 315 308 302 299 297 296 294 291 289 288 285 282 280 279 278 277 276 274 271 271 271 273 273 271 271
293 292 293 297 299 298 296 292 288 289 295 297 293 288 284 283 286 286 280 277 277 277 275 265 247 229 214 202 190 183 177 169 160 155 152 150 150 153 155 157 160 160 166 188 222 244 251 250 258 278 291 301 313 325 334 337 336 333 327 321 315 307 302 300 298 297 295 293 291 289 287 285 282 281 279 277 276 272 270 271 270 269 268 269 272
284 289 294 296 295 292 288 286 288 293 296 296 291 284 279 281 284 280 275 275 277 277 274 257 231 211 196 185 174 163 152 144 142 142 140 140 141 143 147 151 154 162 180 218 245 250 251 252 263 279 293 303 315 328 337 339 336 332 327 321 313 306 302 299 298 295 293 292 291 290 289 288 285 282 279 277 275 273 271 271 269 266 266 268 271
285 288 294 295 295 294 289 287 292 295 295 295 290 279 275 279 278 273 274 278 277 271 255 222 197 181 169 162 153 145 142 144 142 135 131 131 134 136 141 148 157 173 203 239 249 248 248 256 271 289 299 303 313 327 336 338 336 333 328 322 313 306 303 299 295 293 291 290 289 288 288 287 285 283 280 278 277 275 273 271 269 267 267 268 268
289 291 296 296 294 295 295 296 299 298 296 296 289 278 276 277 274 274 277 275 263 239 202 178 161 150 145 143 141 142 145 144 136 126 123 127 134 140 148 159 173 194 214 232 241 245 251 267 287 299 301 301 309 323 331 334 334 333 329 323 314 307 303 298 291 288 288 288 287 287 287 287 286 284 282 280 278 276 273 270 269 268 268 267 266
285 292 299 299 295 295 298 301 302 298 297 299 291 279 276 277 277 280 275 255 218 183 163 152 143 137 136 138 140 142 140 134 128 126 127 132 139 150 162 171 185 205 220 235 246 252 266 283 293 297 298 300 308 319 326 329 331 331 328 322 315 308 303 297 292 288 288 288 288 289 289 289 289 287 285 282 280 277 274 272 270 269 267 265 264
285 293 298 298 296 296 299 301 298 294 298 302 291 276 276 278 278 272 245 202 171 154 146 140 134 133 136 140 143 141 137 133 132 131 132 138 147 156 164 170 188 212 229 244 254 264 280 287 287 289 295 302 309 317 323 325 327 328 325 320 314 308 302 298 293 291 290 290 291 291 292 291 290 288 286 283 280 277 274 272 270 268 266 263 259
283 290 293 295 297 296 297 297 291 291 301 303 282 271 281 282 269 229 191 168 152 141 135 131 131 135 140 143 144 143 142 142 141 137 135 138 141 145 152 165 189 216 233 249 263 277 283 282 282 288 296 303 309 314 319 322 324 325 324 320 315 309 305 301 298 295 295 295 294 294 293 292 290 288 285 282 278 275 274 272 270 267 263 258 254
279 285 290 293 292 291 295 291 285 294 306 299 246 234 311 74 94 125 139 135 129 127 126 128 135 141 144 146 146 147 147 146 145 142 138 129 124 130 146 167 196 227 246 261 274 280 280 280 285 292 298 302 306 312 316 319 321 323 323 321 317 313 310 307 304 301 300 299 297 296 294 292 289 287 285 281 278 275 272 270 267 264 259 254 250
279 283 287 287 285 288 289 280 285 303 311 262 138 111 102 101 94 103 113 112 112 116 121 128 136 140 141 143 145 147 148 145 141 138 131 122 120 124 131 142 175 266 279 283 283 283 286 289 291 293 296 298 303 311 317 319 321 323 324 322 319 316 313 311 308 306 305 303 300 298 295 293 290 287 284 281 278 274 271 268 265 262 258 254 251
279 284 284 281 283 286 278 278 297 309 266 138 119 105 106 105 101 104 109 111 116 123 130 137 141 140 140 142 146 150 151 145 137 129 121 116 116 110 100 93 71 24 341 309 300 298 301 300 295 295 296 295 300 310 317 319 320 323 324 323 321 318 316 313 312 312 310 306 303 299 295 292 289 285 282 280 278 275 271 268 265 262 258 254 250
283 285 282 279 282 278 267 284 303 246 154 141 128 123 121 117 120 124 126 130 137 142 146 150 149 147 146 149 153 154 150 142 133 128 125 122 118 106 91 88 84 74 37 322 309 313 317 312 305 306 307 303 304 312 317 319 321 324 326 325 323 322 320 319 319 319 316 309 303 298 294 291 288 286 284 283 281 279 274 271 268 264 257 251 246
284 283 280 279 277 266 268 289 274 165 153 146 146 148 142 139 148 151 151 154 155 153 153 153 150 150 153 157 156 150 143 138 134 131 131 130 126 115 100 94 97 98 358 302 299 312 324 321 314 314 316 315 314 317 321 323 326 329 329 328 327 325 325 325 325 323 316 308 302 299 296 294 293 291 290 289 288 285 280 277 276 270 260 250 244